sat.trackr.live / text

‹ back to catalog

STARLINK-33653

NORAD 63380 · 2025-063T

PAYLOAD ACTIVE UNKNOWN

§ Identity

Operator
Country
US
Launch date
2025-03-26
Launch site
AFWTR
Launch vehicle
Mass (kg)
RCS (m²)

Purposes: comms

External: N2YO · Heavens-Above · Gunter

§ Orbital elements

Epoch: 2026-09-20T22:07:48.348768Z

Period
94.01 min
Inclination
53.1551°
Eccentricity
0.0001638
Mean motion
15.31712673 rev/d
Perigee alt
469.6 km
Apogee alt
471.8 km
Semi-major
6,848.8 km
B*
3.8602e-4
RAAN
224.6886°
Arg perigee
92.3152°
Mean anomaly
267.8037°
Rev number
8,461

§ Raw data

STARLINK-336531 63380U 25063T   26263.92208737  .00011637  00000+0  38602-3 0  99922 63380  53.1551 224.6886 0001638  92.3152 267.8037 15.31712673 84616

JSON: /api/v1/satellites/63380 · /tle

For live sub-satellite position, see the globe view (requires WebGL).

§ Visibility from observer

Set your observer location to see the next 7 days of passes ≥ 10°. The values pass through the URL so the page stays shareable.

No JS? Fill the form by hand. The geolocation button needs JavaScript.